EW7149 Weather Reports


time (UTC)temp
F
wind
direction
speed
knots
gust
knots
rain 1hr
in
rain 24hr
in
rain mn
in
humidity
%
barometer
mb
20260504110350 49 152 0.0 4.3 0.00 0.00 0.00 59 1014.4
20260504081524 48 171 0.0 0.0 0.00 0.00 0.00 54 1015.1
20260504081007 48 171 0.0 0.0 0.00 0.00 0.00 54 1015.1
20260504080505 48 172 0.0 0.0 0.00 0.00 0.00 54 1015.1
20260504070143 47 221 0.0 0.0 0.00 0.00 0.00 52 1015.2
20260504044657 47 288 0.0 0.0 0.00 0.00 0.00 55 1015.5
20260504044140 47 288 0.0 0.0 0.00 0.00 0.00 56 1015.5
20260504043647 47 288 0.0 0.0 0.00 0.00 0.00 56 1015.5
20260504043138 47 288 0.0 0.0 0.00 0.00 0.00 56 1015.5
20260504042636 47 289 0.0 0.0 0.00 0.00 0.00 54 1015.4
20260504042117 47 289 0.0 0.0 0.00 0.00 0.00 52 1015.4
20260504040944 47 289 0.0 0.0 0.00 0.00 0.00 53 1015.4
20260504040444 47 290 0.0 0.0 0.00 0.00 0.00 53 1015.3
20260504035941 47 290 0.0 0.0 0.00 0.00 0.00 54 1015.2
20260504035438 47 290 0.0 0.0 0.00 0.00 0.00 55 1015.2
20260504034928 48 290 0.0 0.0 0.00 0.00 0.00 57 1015.2
20260504034428 48 290 0.0 0.0 0.00 0.00 0.00 58 1015.1
20260504033912 48 290 0.0 0.0 0.00 0.00 0.00 58 1015.1
20260504033411 48 290 0.0 0.0 0.00 0.00 0.00 56 1015.1
20260504032907 48 290 0.0 0.0 0.00 0.00 0.00 52 1014.9
20260504032358 48 290 0.0 0.0 0.00 0.00 0.00 50 1015.2
20260504031247 48 290 0.0 0.0 0.00 0.00 0.00 51 1015.1
20260504030741 48 290 0.0 0.0 0.00 0.00 0.00 51 1015.0
20260504025631 49 290 0.0 0.0 0.00 0.00 0.00 50 1015.0
20260504025123 49 290 0.0 0.0 0.00 0.00 0.00 52 1015.0
20260504024008 49 290 0.0 0.0 0.00 0.00 0.00 52 1015.0
20260504023500 49 290 0.0 0.0 0.00 0.00 0.00 53 1015.0
20260504022958 50 290 0.0 0.0 0.00 0.00 0.00 54 1015.0
20260504022440 50 290 0.0 0.0 0.00 0.00 0.00 49 1014.9
20260504021931 50 290 0.0 0.0 0.00 0.00 0.00 49 1014.9
20260504021441 50 290 0.0 0.0 0.00 0.00 0.00 48 1014.9
20260504020932 50 290 0.0 0.0 0.00 0.00 0.00 48 1014.8
20260504020415 50 290 0.0 0.0 0.00 0.00 0.00 48 1014.9
20260504015907 50 290 0.0 0.0 0.00 0.00 0.00 48 1014.8
20260504015417 50 290 0.0 0.0 0.00 0.00 0.00 48 1014.8
20260504014927 50 290 0.0 0.0 0.00 0.00 0.00 48 1014.8
20260504013811 50 290 0.0 0.0 0.00 0.00 0.00 48 1014.8
20260504013256 50 290 0.0 0.0 0.00 0.00 0.00 48 1014.7
20260504012744 50 290 0.0 0.0 0.00 0.00 0.00 48 1014.7
20260504011629 51 290 0.0 0.0 0.00 0.00 0.00 49 1014.6
20260504011126 51 290 0.0 0.0 0.00 0.00 0.00 49 1014.5
20260504010010 52 290 0.0 0.0 0.00 0.00 0.00 46 1014.5
20260504005514 52 290 0.0 0.0 0.00 0.00 0.00 46 1014.5
20260504005013 53 290 0.0 0.0 0.00 0.00 0.00 45 1014.4
20260504004507 53 290 0.0 0.0 0.00 0.00 0.00 45 1014.4
20260504004015 54 290 0.0 0.0 0.00 0.00 0.00 46 1014.4
20260504003517 54 290 0.0 0.0 0.00 0.00 0.00 45 1014.3
20260504003022 54 290 0.0 0.0 0.00 0.00 0.00 43 1014.3
20260504000604 56 290 0.0 0.0 0.00 0.00 0.00 39 1014.1
20260504000052 57 290 0.0 0.0 0.00 0.00 0.00 39 1014.0
20260503235543 57 290 0.0 0.0 0.00 0.00 0.00 38 1014.0
20260503235037 57 290 0.0 0.0 0.00 0.00 0.00 38 1014.0
20260503234520 57 246 0.0 0.0 0.00 0.00 0.00 37 1014.0
20260503234018 58 246 0.0 0.0 0.00 0.00 0.00 36 1013.9
20260503233522 58 232 0.0 0.0 0.00 0.00 0.00 36 1013.9
20260503233020 58 241 0.0 0.0 0.00 0.00 0.00 36 1013.9
20260503232503 59 238 0.0 0.0 0.00 0.00 0.00 37 1013.8
20260503232012 59 229 0.0 0.0 0.00 0.00 0.00 36 1013.7
20260503231514 60 273 0.0 0.0 0.00 0.00 0.00 35 1013.7
20260503230343 61 304 0.0 0.0 0.00 0.00 0.00 34 1013.6
20260503225832 61 263 0.0 2.6 0.00 0.00 0.00 34 1013.6
20260503225337 61 288 0.0 2.6 0.00 0.00 0.00 33 1013.6
20260503224835 61 294 0.0 0.9 0.00 0.00 0.00 33 1013.6
20260503224322 61 269 0.0 2.6 0.00 0.00 0.00 33 1013.6
20260503223832 61 271 0.0 0.0 0.00 0.00 0.00 33 1013.6
20260503223325 61 306 0.0 0.0 0.00 0.00 0.00 33 1013.7
20260503222833 61 290 0.0 3.5 0.00 0.00 0.00 33 1013.7
20260503222322 61 254 0.0 0.0 0.00 0.00 0.00 34 1013.8
20260503221809 62 286 0.0 4.3 0.00 0.00 0.00 32 1013.8
20260503221312 61 267 0.0 1.7 0.00 0.00 0.00 34 1013.8
20260503220140 61 296 0.0 0.0 0.00 0.00 0.00 34 1013.8
20260503215639 61 263 0.0 7.0 0.00 0.00 0.00 34 1013.8
20260503215120 61 287 0.0 7.0 0.00 0.00 0.00 33 1013.8
20260503214608 61 292 0.0 7.0 0.00 0.00 0.00 34 1013.8
20260503214101 61 273 0.0 5.2 0.00 0.00 0.00 33 1013.8
20260503213555 61 253 0.0 0.0 0.00 0.00 0.00 33 1013.7
20260503213055 62 309 0.0 0.0 0.00 0.00 0.00 33 1013.7
20260503212539 62 248 0.0 7.0 0.00 0.00 0.00 31 1013.8
20260503212047 62 261 0.0 7.0 0.00 0.00 0.00 33 1013.7
20260503210928 61 355 0.0 0.9 0.00 0.00 0.00 33 1013.7
20260503210432 61 327 0.0 2.6 0.00 0.00 0.00 33 1013.8
20260503205919 61 271 0.0 7.8 0.00 0.00 0.00 32 1013.9
20260503205409 61 302 0.0 7.8 0.00 0.00 0.00 34 1013.8
20260503204915 61 311 0.0 0.0 0.00 0.00 0.00 35 1013.7
20260503204417 60 279 0.0 7.8 0.00 0.00 0.00 33 1013.8
20260503203907 60 236 0.0 11.3 0.00 0.00 0.00 34 1013.8
20260503203403 60 293 0.0 11.3 0.00 0.00 0.00 35 1013.7
20260503202851 60 296 0.9 11.3 0.00 0.00 0.00 33 1013.9
20260503202343 60 292 0.0 7.8 0.00 0.00 0.00 32 1013.8
20260503201852 60 234 0.0 7.8 0.00 0.00 0.00 32 1014.1
20260503201348 61 247 0.0 11.3 0.00 0.00 0.00 32 1014.2
20260503200842 61 66 0.0 11.3 0.00 0.00 0.00 34 1014.1
20260503200343 60 266 0.9 11.3 0.00 0.00 0.00 34 1014.2
20260503195835 60 311 0.0 11.3 0.00 0.00 0.00 34 1014.1
20260503195321 61 84 0.0 4.3 0.00 0.00 0.00 31 1014.2
20260503194827 61 347 0.0 0.0 0.00 0.00 0.00 35 1014.3
20260503194320 61 273 0.9 10.4 0.00 0.00 0.00 33 1014.4
20260503193823 61 246 0.9 10.4 0.00 0.00 0.00 32 1014.5
20260503193319 60 212 0.9 7.8 0.00 0.00 0.00 33 1014.5
20260503192819 60 257 0.9 8.7 0.00 0.00 0.00 33 1014.5
20260503192322 60 301 0.9 9.6 0.00 0.00 0.00 34 1014.6
20260503191811 59 157 1.7 9.6 0.00 0.00 0.00 33 1014.6
20260503191253 59 269 0.9 13.0 0.00 0.00 0.00 34 1014.7
20260503190759 59 248 1.7 13.0 0.00 0.00 0.00 35 1014.7
20260503190258 59 217 2.6 13.0 0.00 0.00 0.00 36 1014.7
20260503185808 59 271 0.9 13.0 0.00 0.00 0.00 36 1014.8
20260503185306 59 243 0.9 8.7 0.00 0.00 0.00 36 1015.0
20260503184750 59 248 0.9 7.0 0.00 0.00 0.00 38 1015.0
20260503183618 58 277 1.7 12.2 0.00 0.00 0.00 43 1015.1
20260503183125 57 313 0.9 12.2 0.00 0.00 0.00 37 1015.2
20260503182624 58 198 0.0 8.7 0.00 0.00 0.00 37 1015.4
20260503182117 58 319 0.9 9.6 0.00 0.00 0.00 38 1015.3
20260503181615 58 292 0.9 6.1 0.00 0.00 0.00 40 1015.3
20260503180513 56 280 0.9 10.4 0.00 0.00 0.00 40 1015.4
20260503180024 56 283 1.7 10.4 0.00 0.00 0.00 38 1015.5
20260503174908 57 284 0.9 9.6 0.00 0.00 0.00 39 1015.5
20260503174412 57 216 1.7 9.6 0.00 0.00 0.00 39 1015.5
20260503173903 57 286 0.9 9.6 0.00 0.00 0.00 39 1015.5
20260503172751 56 281 1.7 10.4 0.00 0.00 0.00 41 1015.7
20260503172232 56 245 1.7 10.4 0.00 0.00 0.00 41 1015.6
20260503171741 56 257 0.9 10.4 0.00 0.00 0.00 43 1015.6
20260503171229 55 37 0.9 5.2 0.00 0.00 0.00 42 1015.7
20260503170728 55 290 0.0 9.6 0.00 0.00 0.00 43 1015.8
20260503170221 55 267 0.0 10.4 0.00 0.00 0.00 45 1015.7
20260503160118 53 275 1.7 9.6 0.00 0.00 0.00 42 1016.3
20260503150634 51 323 1.7 8.7 0.00 0.00 0.00 45 1016.4
20260503150125 51 57 0.9 8.7 0.00 0.00 0.00 47 1016.5
20260503131354 45 319 0.0 3.5 0.00 0.00 0.00 57 1016.5
20260503130844 45 252 0.0 9.6 0.00 0.00 0.00 59 1016.5
20260503130333 44 267 0.0 6.1 0.00 0.00 0.00 59 1016.5